This is the latest recevied weather packets stored in our database for station/object KB1RMA-4. If no packets are shown the sender has not sent any weather packets the latest 10 day(s).
| Time | Temp. | Humidity | Pressure | Rain* | Wind** | Luminosity | Snow |
|---|---|---|---|---|---|---|---|
| 1787915275 | 20.56° C | 97% | 1015.3 hPa | 0 mm | - | 55 W/m² | - |
| 1787914970 | 20.56° C | 97% | 1015.4 hPa | 0 mm | - | 52 W/m² | - |
| 1787914668 | 20.56° C | 97% | 1015.1 hPa | 0 mm | - | 55 W/m² | - |
| 1787914363 | 20.56° C | 97% | 1015.2 hPa | 0 mm | - | 46 W/m² | - |
| 1787914062 | 20.56° C | 97% | 1015.3 hPa | 0 mm | - | 36 W/m² | - |
| 1787913757 | 20.56° C | 96% | 1015.3 hPa | 0 mm | - | 29 W/m² | - |
| 1787913452 | 20.56° C | 96% | 1015.3 hPa | 0 mm | - | 18 W/m² | - |
| 1787913152 | 20.56° C | 96% | 1015.3 hPa | 0 mm | - | 20 W/m² | - |
| 1787912851 | 20.56° C | 96% | 1015.1 hPa | 0 mm | - | 15 W/m² | - |
| 1787912546 | 20.56° C | 96% | 1015.2 hPa | 0 mm | - | 10 W/m² | - |
| 1787912245 | 20.56° C | 96% | 1015.1 hPa | 0 mm | - | 6 W/m² | - |
| 1787911939 | 20.56° C | 95% | 1015 hPa | 0 mm | - | 4 W/m² | - |
| 1787911635 | 20.56° C | 95% | 1015 hPa | 0 mm | - | 3 W/m² | - |
| 1787911334 | 20.56° C | 95% | 1014.7 hPa | 0 mm | - | 0 W/m² | - |
| 1787911030 | 20.56° C | 95% | 1014.9 hPa | 0 mm | - | 0 W/m² | - |
| 1787910726 | 20.56° C | 95% | 1015.1 hPa | 0 mm | - | 0 W/m² | - |
| 1787910421 | 20.56° C | 94% | 1014.9 hPa | 0 mm | - | 0 W/m² | - |
| 1787910117 | 20.56° C | 94% | 1015.1 hPa | 0 mm | - | 0 W/m² | - |
| 1787909814 | 20.56° C | 94% | 1014.9 hPa | 0 mm | - | 0 W/m² | - |
| 1787909513 | 20.56° C | 94% | 1014.9 hPa | 0 mm | - | 0 W/m² | - |
| 1787909208 | 20.56° C | 94% | 1014.9 hPa | 0 mm | - | 0 W/m² | - |
| 1787908904 | 20.56° C | 94% | 1014.9 hPa | 0 mm | - | 0 W/m² | - |
| 1787908603 | 20.56° C | 94% | 1014.7 hPa | 0 mm | - | 0 W/m² | - |
| 1787908298 | 20.56° C | 94% | 1014.9 hPa | 0 mm | - | 0 W/m² | - |
| 1787907997 | 20.56° C | 94% | 1014.9 hPa | 0 mm | - | 0 W/m² | - |
* Rain latest hour (hover to see other rain measurements)
** Current wind speed in m/s (hover to see current wind gust speed)